Regional Weather Roundup
Issued by NWS

Home | Current Version | Previous Version | Text Only | Print | Product List | Glossary On
Versions: 1 2 3 4 5 6 7 8 9 10 11 12 13 14 15 16 17 18 19 20 21 22 23 24 25 26 27 28 29 30 31 32 33 34 35 36 37 38 39 40 41 42 43 44 45 46 47 48 49 50
000
ASHW40 PHFO 250243
RWRHI

WEATHER ROUNDUP FOR HAWAII
NATIONAL WEATHER SERVICE HONOLULU HI
400 PM HST SUN JUL 24 2016

THIS IS AN AUTOMATED REPORT THAT HAS NOT BEEN QUALITY CONTROLLED.

NOTE..."FAIR" INDICATES FEW OR NO CLOUDS BELOW 12,000 FEET WITH NO
SIGNIFICANT WEATHER AND/OR OBSTRUCTIONS TO VISIBILITY.

* - THESE SITES REPORT LIMITED FIELDS

HIZ001>004-250300-
KAUAI-NIIHAU-

CITY           SKY/WX    TMP DP  RH WIND       PRES   REMARKS
LIHUE APT      LGT RAIN  77  75  93 N17       29.85F
PORT ALLEN*      N/A     82 N/A N/A NE14        N/A
POIPU*           N/A     77 N/A N/A NE10G24     N/A
PRINCEVILLE*     N/A     75 N/A N/A NE8G16      N/A
KOKOLE POINT*  NOT AVBL
MOLOAA DAIRY*    N/A     75  73  94 NE3G14      N/A
WAIMEA HTS*      N/A     84  72  65 SW6G12      N/A
PUU OPAE*        N/A     75  70  83 S3G9        N/A
PUU LUA*       NOT AVBL
MAKAHA RIDGE*    N/A     75  73  94 NE6G14      N/A
$$

HIZ005>011-250300-
OAHU-

CITY           SKY/WX    TMP DP  RH WIND       PRES   REMARKS
HONOLULU       CLOUDY    79  75  87 S12       29.84R
KALAELOA       MOSUNNY   84  76  76 S12       29.85R HX  93
KANEOHE MCB    RAIN      79  77  94 SE10      29.81R
WHEELER FIELD  PTSUNNY   77  77  98 S9        29.85
BELLOWS*         N/A    N/A N/A N/A SE8         N/A
KAHUKU*          N/A    N/A N/A N/A VRB8G17     N/A
WHEELER*         N/A    N/A N/A N/A SE15G24     N/A
WAIANAE HARBOR   N/A    N/A N/A N/A S14         N/A
DILLINGHAM*      N/A     79  75  89 MISG        N/A
KAHUKU TRN*      N/A     79  77  94 NW3G17      N/A
KAWAILOA*        N/A     75  72  88 S12G26      N/A
KII*             N/A     79  77  94 E20G35      N/A
MAKUA RANGE*     N/A     79  73  83 E8G32       N/A
OAHU FOREST NW   N/A     75 N/A N/A S10         N/A
SCHOFIELD BRK*   N/A     77  75  94 MISG        N/A
SCHOFIELD S*   NOT AVBL
WAIANAE VLY*   NOT AVBL
KUAOKALA*        N/A     75  75 100 SE17G31     N/A
HONOULIUULI*   NOT AVBL
MOKUOLOE IS*   NOT AVBL
PALEHUA*         N/A     72  72 100 S6G17       N/A
WAIAWA PHB*    NOT AVBL
$$

HIZ012>013-250300-
MOLOKAI-

CITY           SKY/WX    TMP DP  RH WIND       PRES   REMARKS
MOLOKAI AIRPT  LGT RAIN  79  75  89 SE9       29.89R
KALAUPAPA      NOT AVBL
MAKAPULAPAI*     N/A     81  72  74 NE6G17      N/A
MOLOKAI 1*     NOT AVBL
PUU ALII*        N/A     64  64 100 E5G20       N/A
$$

HIZ016-250300-
KAHOOLAWE-

CITY           SKY/WX    TMP DP  RH WIND       PRES   REMARKS
KAHOOLAWE*       N/A     77 N/A N/A S1          N/A
HAKIOAWA*        N/A     81  74  79 MISG      30.32
HONOKANAIA*      N/A     88  74  63 E15G25    29.82F HX  97
KANELOA*         N/A     79  73  83 SE9G17    29.96F
KEALIALALO*    NOT AVBL
LUA MAKIKA*    NOT AVBL
$$

HIZ014>015-250300-
LANAI-

CITY           SKY/WX    TMP DP  RH WIND       PRES   REMARKS
LANAI CITY     CLOUDY    74  73  97 SE18G25   29.94R FOG
LANAI 1*       NOT AVBL
$$

HIZ017>028-250300-
MAUI-

CITY           SKY/WX    TMP DP  RH WIND       PRES   REMARKS
KAHULUI        CLOUDY    86  70  58 VRB7G16   29.87S HX  90
KAPALUA-W MAUI PTSUNNY   84  68  58 S18G28    29.88
HANA AIRPORT     N/A     79  75  89 E9        29.91S
HANA*            N/A     79 N/A N/A E9G21       N/A
HALEAKALA SUMM   N/A     46  46 100 S17         N/A
MAALAEA BAY*     N/A     86 N/A N/A SW17G24     N/A
HALEAKALA*     NOT AVBL
KAUPO GAP*       N/A     75  73  94 SE5G12      N/A
KULA 1*        NOT AVBL
$$

HIZ023>026-250300-
BIG ISLAND OF HAWAII COAST AND LOWER SLOPES-

CITY           SKY/WX    TMP DP  RH WIND       PRES   REMARKS
KAILUA KONA    CLOUDY    86  74  67 S8        29.87S HX  94
HILO           CLOUDY    81  75  83 SE9       29.91S
HONOKAA*         N/A     77 N/A N/A VRB1        N/A
KAWAIHAE MWT*    N/A     84 N/A N/A W13         N/A
KAWAIHAE*        N/A     82 N/A N/A W14       29.87S
SOUTH POINT*     N/A     77 N/A N/A NE15        N/A
UPOLU AIRPORT*   N/A    N/A N/A N/A NE14        N/A
KAMUELA*       CLOUDY    72  70  94 W7        30.03S
HAKALAU*         N/A     65  61  86 S7G15       N/A
KALOKO-HONOKO*   N/A     88  73  62 SW5G13    29.86S HX  96
PALI 2*          N/A     70  70 100 NW7         N/A
KEALAKOMO*       N/A     82  75  78 E9G15       N/A
KAUPULEHU*       N/A     75  72  88 NE3G12      N/A
KAPAPALA*        N/A     77  72  85 E5G10       N/A
LOWER KAHUKU*    N/A     72  70  94 E3G12       N/A
PUHE CS*         N/A     86  72  62 W10G17      N/A  HX  92
PUHO CS*         N/A     89  72  57 NW6         N/A  HX  96
PTA KEAMUKU*   NOT AVBL
WAIKOLOA*        N/A     82  70  65 W6G12       N/A
$$

HIZ027>028-250300-
BIG ISLAND OF HAWAII INTERIOR AND SUMMMITS-

CITY           SKY/WX    TMP DP  RH WIND       PRES   REMARKS
BRADSHAW FIELD CLOUDY    66  61  82 W7        30.27
MK VISITOR CEN   N/A     55  43  62 E6          N/A
MAUNA KEA*       N/A     37  36  93 NW17        N/A  WCI  28
MAUNA LOA*       N/A     50  36  57 MISG        N/A
MAUNA LOA 1*   NOT AVBL
PTA KIPUKA*      N/A     72  64  78 VRB6G13     N/A
PTA RANGE 17*    N/A     64  64 100 NW9G18      N/A
PTA WEST*        N/A     70  64  83 N9G18       N/A
NENE CABIN*      N/A     63  57  82 E6          N/A
AHUMOA*          N/A     61  61  99 N5          N/A
PTA PORTABLE*  NOT AVBL
PUU MALI*        N/A     61  61 100 NW6         N/A
$$

HIC003-250300-
NORTHWEST ISLANDS-

CITY           SKY/WX    TMP DP  RH WIND       PRES   REMARKS
MIDWAY ISLAND  PTSUNNY   82  70  65 E20       30.14S
MIDWAY NOS*      N/A     79 N/A N/A MISG      30.13S
FRENCH FRIGATE NOT AVBL
$$

PHZ110>124-180-250300-
BUOY REPORTS

STATION/POSITION TIME  TEMP    WIND        PRES    WAVE   SWELL
                       AIR SEA DIR/SP/G            HT/PER HT/DIR
                 (UTC) (F)     (DEG/KT/KT) (MB)    (FT/S) (FT/D)
BUOY 51001       0200   81 82   80/ 14/ 16 1015.6F
BUOY 51101       0150   77 78   40/ 17/ 21 1014.4F   7/10   5/ 70
BUOY 51100       NOT AVBL
BUOY 51002       0150   81 83   60/ 12/ 14 1012.2F   7/ 8   7
BUOY 51003       0150   80 82  360/  8/ 10 1010.5F   7/ 8   7/ 60
BUOY 51004       0150   81 81   90/ 14/ 17 1012.1S   6/ 6   3/ 90
BARBERS PT BUOY  NOT AVBL
WAIMEA BAY BUOY  0204      79                N/A     6/ 8   2/ 20
KAILUA BAY BUOY  0211      80                N/A     9/ 8   3/ 40
LANAI BUOY       0215      81                N/A     5/ 6   2/190
BARBERS PT 2     NOT AVBL
PAUWELA MAUI     0209      79                N/A     8/ 7   2/ 80
HILO             0212      80                N/A     7/ 7   2/ 80
KANEOHE BAY BUOY 0206      78                N/A     7/ 8   2/ 20
HANALEI KAUAI    NOT AVBL
KAHULUI HARBOR   0200   85 79                N/A
HONOLULU HARBOR  0200   82 80                N/A
KILO NALU        NOT AVBL
HILO HARBOR      0200   81 79                N/A
MOKUOLOE         0100   81 81  150/  5/  9 1009.5F
NAWILIWILI       0200   76 80                N/A
WHOTS BUOY       NOT AVBL
BUOY 51028       NOT AVBL
$$

......................KEY........................................
  SKY/WX - SKY CONDITIONS/PRESENT WEATHER
  TMP    - TEMPERATURE IN FAHRENHEIT
  DWPT   - DEWPOINT IN FAHRENHEIT
  RH     - RELATIVE HUMIDITY IN PERCENT
  WIND   - DIRECTION AND SPEED /MPH FOR ISLANDS...KTS FOR BUOYS/
  PRES   - MEAN SEA LEVEL PRESSURE IN INCHES OF HG
  VSB    - VISIBILITY IN MILES
  HX     - HEAT INDEX
  WCI    - WIND CHILL INDEX
  VRB    - VARIABLE WIND DIRECTION
  N/A    - NOT AVAILABLE



USA.gov is the U.S. government's official web portal to all federal, state and local government web resources and services.